When you browse on this site, cookies collect data to enhance your experience and personalize the content and advertising you see.
Visit our Privacy Policy to learn more. By continuing to use the site, you agree to this use of cookies and data.
  • în România
  • Lista ţărilor
  • Pe 7 zile
  • Temperatura apei
  • Hartă satelitară
  • Meteo pe hartă
  • Widget-uri
  • user-avatar
    Intrare

    Meteo pe oră la Sarreguemines

    Astăzi, 25 Iunie, Marţi

    Timp Temperatura Precipitaţii Vânt Presiune Umiditate
    00:00 +23°C° 0 mm 2 m/s 738 mmHg 92%
    01:00 +21°C° 0 mm 2 m/s 738 mmHg 92%
    02:00 +21°C° 0 mm 2 m/s 738 mmHg 93%
    03:00 +20°C° 0 mm 2 m/s 738 mmHg 93%
    04:00 +21°C° 0 mm 2 m/s 738 mmHg 90%
    05:00 +23°C° 0 mm 1 m/s 739 mmHg 88%
    06:00 +24°C° 0 mm 1 m/s 739 mmHg 85%
    07:00 +26°C° 0 mm 1 m/s 739 mmHg 78%
    08:00 +28°C° 0 mm 2 m/s 739 mmHg 71%
    09:00 +30°C° 0 mm 2 m/s 740 mmHg 64%
    10:00 +31°C° 0 mm 2 m/s 740 mmHg 60%
    11:00 +32°C° 0 mm 2 m/s 740 mmHg 55%
    12:00 +34°C° 0 mm 2 m/s 740 mmHg 50%
    13:00 +34°C° 0 mm 2 m/s 740 mmHg 51%
    14:00 +34°C° 0 mm 2 m/s 740 mmHg 51%
    15:00 +33°C° 0 mm 1 m/s 740 mmHg 52%
    16:00 +32°C° 0 mm 1 m/s 740 mmHg 58%
    17:00 +31°C° 0 mm 1 m/s 740 mmHg 65%
    18:00 +30°C° 0 mm 1 m/s 741 mmHg 71%
    19:00 +28°C° 0 mm 1 m/s 741 mmHg 74%
    20:00 +27°C° 0 mm 1 m/s 741 mmHg 77%
    21:00 +25°C° 0 mm 1 m/s 741 mmHg 79%
    22:00 +24°C° 0 mm 1 m/s 741 mmHg 81%
    23:00 +21°C° 0 mm 0 m/s 742 mmHg 83%

    Mâine, 26 Iunie, Miercuri

    Timp Temperatura Precipitaţii Vânt Presiune Umiditate
    00:00 +21°C° 0 mm 0 m/s 742 mmHg 85%
    01:00 +21°C° 0 mm 0 m/s 742 mmHg 86%
    02:00 +20°C° 0 mm 0 m/s 742 mmHg 86%
    03:00 +20°C° 0 mm 0 m/s 742 mmHg 87%
    04:00 +21°C° 0 mm 0 m/s 742 mmHg 84%
    05:00 +22°C° 0 mm 0 m/s 742 mmHg 81%
    06:00 +24°C° 0 mm 0 m/s 743 mmHg 79%
    07:00 +27°C° 0 mm 1 m/s 743 mmHg 72%
    08:00 +29°C° 0 mm 1 m/s 743 mmHg 65%
    09:00 +31°C° 0 mm 1 m/s 743 mmHg 58%
    10:00 +32°C° 0 mm 1 m/s 743 mmHg 55%
    11:00 +34°C° 0 mm 1 m/s 743 mmHg 51%
    12:00 +35°C° 0 mm 1 m/s 743 mmHg 48%
    13:00 +35°C° 0 mm 1 m/s 743 mmHg 48%
    14:00 +36°C° 0 mm 2 m/s 742 mmHg 49%
    15:00 +36°C° 0 mm 2 m/s 742 mmHg 50%
    16:00 +35°C° 0 mm 2 m/s 742 mmHg 57%
    17:00 +32°C° 0 mm 2 m/s 742 mmHg 63%
    18:00 +31°C° 0 mm 2 m/s 742 mmHg 70%
    19:00 +29°C° 0 mm 3 m/s 742 mmHg 71%
    20:00 +28°C° 0 mm 3 m/s 742 mmHg 71%
    21:00 +26°C° 0 mm 3 m/s 742 mmHg 71%
    22:00 +25°C° 0 mm 3 m/s 742 mmHg 75%
    23:00 +25°C° 0 mm 3 m/s 742 mmHg 78%

    Poimâine, 27 Iunie, Joi

    Timp Temperatura Precipitaţii Vânt Presiune Umiditate
    00:00 +24°C° 0 mm 3 m/s 742 mmHg 81%
    01:00 +22°C° 0 mm 4 m/s 742 mmHg 83%
    02:00 +22°C° 0 mm 4 m/s 742 mmHg 84%
    03:00 +21°C° 0 mm 4 m/s 742 mmHg 86%
    04:00 +22°C° 0 mm 4 m/s 743 mmHg 84%
    05:00 +22°C° 0 mm 4 m/s 743 mmHg 82%
    06:00 +22°C° 0 mm 4 m/s 743 mmHg 79%
    07:00 +25°C° 0 mm 4 m/s 743 mmHg 74%
    08:00 +26°C° 0 mm 4 m/s 744 mmHg 68%
    09:00 +27°C° 0 mm 4 m/s 744 mmHg 63%
    10:00 +28°C° 0 mm 4 m/s 744 mmHg 61%
    11:00 +29°C° 0 mm 4 m/s 743 mmHg 58%
    12:00 +30°C° 0 mm 4 m/s 743 mmHg 56%
    13:00 +30°C° 0 mm 4 m/s 743 mmHg 56%
    14:00 +30°C° 0 mm 4 m/s 743 mmHg 55%
    15:00 +29°C° 0 mm 4 m/s 743 mmHg 54%
    16:00 +28°C° 0 mm 4 m/s 743 mmHg 57%
    17:00 +27°C° 0 mm 4 m/s 742 mmHg 61%
    18:00 +26°C° 0 mm 3 m/s 742 mmHg 64%
    19:00 +24°C° 0 mm 3 m/s 743 mmHg 61%
    20:00 +21°C° 0 mm 3 m/s 743 mmHg 59%
    21:00 +19°C° 0 mm 3 m/s 743 mmHg 56%
    22:00 +18°C° 0 mm 3 m/s 743 mmHg 59%
    23:00 +17°C° 0 mm 3 m/s 743 mmHg 61%

    28 Iunie, Vineri

    Timp Temperatura Precipitaţii Vânt Presiune Umiditate
    00:00 +17°C° 0 mm 3 m/s 743 mmHg 64%
    01:00 +16°C° 0 mm 3 m/s 743 mmHg 68%
    02:00 +16°C° 0 mm 3 m/s 743 mmHg 73%
    03:00 +14°C° 0 mm 3 m/s 742 mmHg 77%
    04:00 +16°C° 0 mm 3 m/s 742 mmHg 77%
    05:00 +17°C° 0 mm 4 m/s 742 mmHg 76%
    06:00 +18°C° 0 mm 4 m/s 742 mmHg 75%
    07:00 +19°C° 0 mm 4 m/s 742 mmHg 69%
    08:00 +21°C° 0 mm 4 m/s 742 mmHg 63%
    09:00 +23°C° 0 mm 4 m/s 742 mmHg 58%
    10:00 +25°C° 0 mm 4 m/s 742 mmHg 54%
    11:00 +26°C° 0 mm 4 m/s 742 mmHg 50%
    12:00 +27°C° 0 mm 4 m/s 742 mmHg 46%
    13:00 +27°C° 0 mm 4 m/s 742 mmHg 46%
    14:00 +27°C° 0 mm 4 m/s 742 mmHg 46%
    15:00 +28°C° 0 mm 4 m/s 741 mmHg 47%
    16:00 +26°C° 0 mm 4 m/s 741 mmHg 51%
    17:00 +25°C° 0 mm 3 m/s 741 mmHg 56%
    18:00 +24°C° 0 mm 3 m/s 741 mmHg 60%
    19:00 +22°C° 0 mm 3 m/s 741 mmHg 59%
    20:00 +20°C° 0 mm 3 m/s 741 mmHg 58%
    21:00 +18°C° 0 mm 3 m/s 741 mmHg 57%
    22:00 +18°C° 0 mm 3 m/s 741 mmHg 61%
    23:00 +17°C° 0 mm 3 m/s 740 mmHg 65%

    29 Iunie, Sâmbătă

    Timp Temperatura Precipitaţii Vânt Presiune Umiditate
    00:00 +16°C° 0 mm 3 m/s 740 mmHg 69%
    01:00 +16°C° 0 mm 3 m/s 740 mmHg 72%
    02:00 +14°C° 0 mm 3 m/s 739 mmHg 74%
    03:00 +14°C° 0 mm 3 m/s 739 mmHg 77%
    04:00 +16°C° 0 mm 3 m/s 739 mmHg 75%
    05:00 +17°C° 0 mm 4 m/s 739 mmHg 74%
    06:00 +18°C° 0 mm 4 m/s 739 mmHg 72%
    07:00 +20°C° 0 mm 4 m/s 739 mmHg 66%
    08:00 +22°C° 0 mm 4 m/s 739 mmHg 60%
    09:00 +26°C° 0 mm 4 m/s 739 mmHg 54%
    10:00 +27°C° 0 mm 4 m/s 739 mmHg 51%
    11:00 +28°C° 0 mm 4 m/s 739 mmHg 48%
    12:00 +30°C° 0 mm 4 m/s 739 mmHg 44%
    13:00 +30°C° 0 mm 4 m/s 738 mmHg 45%
    14:00 +30°C° 0 mm 4 m/s 738 mmHg 46%
    15:00 +32°C° 0 mm 4 m/s 738 mmHg 47%
    16:00 +29°C° 0 mm 3 m/s 738 mmHg 53%
    17:00 +28°C° 0 mm 3 m/s 737 mmHg 59%
    18:00 +27°C° 0 mm 3 m/s 737 mmHg 65%
    19:00 +25°C° 0 mm 2 m/s 737 mmHg 69%
    20:00 +23°C° 0 mm 2 m/s 737 mmHg 72%
    21:00 +21°C° 0 mm 2 m/s 737 mmHg 76%
    22:00 +20°C° 0 mm 2 m/s 737 mmHg 79%
    23:00 +20°C° 0 mm 1 m/s 737 mmHg 83%

    30 Iunie, Duminică

    Timp Temperatura Precipitaţii Vânt Presiune Umiditate
    00:00 +20°C° 0 mm 1 m/s 737 mmHg 87%
    01:00 +19°C° 0 mm 1 m/s 737 mmHg 88%
    02:00 +19°C° 0 mm 1 m/s 736 mmHg 89%
    03:00 +19°C° 0 mm 1 m/s 736 mmHg 90%
    04:00 +20°C° 0 mm 1 m/s 737 mmHg 87%
    05:00 +21°C° 0 mm 1 m/s 737 mmHg 84%
    06:00 +23°C° 0 mm 2 m/s 737 mmHg 81%
    07:00 +24°C° 0 mm 2 m/s 738 mmHg 76%
    08:00 +26°C° 0 mm 2 m/s 738 mmHg 71%
    09:00 +28°C° 0 mm 3 m/s 738 mmHg 67%
    10:00 +29°C° 0 mm 3 m/s 738 mmHg 65%
    11:00 +30°C° 0 mm 4 m/s 738 mmHg 63%
    12:00 +32°C° 0 mm 4 m/s 738 mmHg 61%
    13:00 +32°C° 0.1 mm 5 m/s 738 mmHg 64%
    14:00 +30°C° 0.1 mm 5 m/s 738 mmHg 66%
    15:00 +30°C° 0.1 mm 5 m/s 738 mmHg 69%
    16:00 +29°C° 0 mm 5 m/s 738 mmHg 71%
    17:00 +28°C° 0 mm 4 m/s 738 mmHg 73%
    18:00 +27°C° 0 mm 4 m/s 738 mmHg 75%
    19:00 +25°C° 0 mm 3 m/s 738 mmHg 77%
    20:00 +21°C° 0 mm 3 m/s 738 mmHg 79%
    21:00 +19°C° 0 mm 2 m/s 739 mmHg 81%
    22:00 +18°C° 0 mm 2 m/s 739 mmHg 84%
    23:00 +17°C° 0 mm 2 m/s 739 mmHg 86%
    Arată mai mult